Hourly Weather Bolshie Leznevichi

Today, 20 June, Sunday

Time Temperature Precipitation Wind Pressure Humidity
00:00 +19°C° 0 mm 2 mps 740 mmHg 86%
01:00 +18°C° 0 mm 2 mps 740 mmHg 88%
02:00 +18°C° 0 mm 2 mps 740 mmHg 90%
03:00 +18°C° 0 mm 2 mps 740 mmHg 91%
04:00 +18°C° 0 mm 2 mps 739 mmHg 91%
05:00 +18°C° 0 mm 2 mps 739 mmHg 92%
06:00 +20°C° 0 mm 3 mps 739 mmHg 88%
07:00 +21°C° 0 mm 4 mps 739 mmHg 84%
08:00 +23°C° 0 mm 4 mps 739 mmHg 79%
09:00 +25°C° 0 mm 4 mps 740 mmHg 74%
10:00 +26°C° 0 mm 5 mps 740 mmHg 69%
11:00 +27°C° 0 mm 5 mps 740 mmHg 65%
12:00 +28°C° 0 mm 5 mps 739 mmHg 63%
13:00 +28°C° 0 mm 5 mps 739 mmHg 61%
14:00 +29°C° 0 mm 4 mps 739 mmHg 59%
15:00 +28°C° 0.1 mm 4 mps 739 mmHg 63%
16:00 +28°C° 0.1 mm 4 mps 738 mmHg 66%
17:00 +28°C° 0.1 mm 4 mps 738 mmHg 70%
18:00 +26°C° 0.1 mm 4 mps 738 mmHg 75%
19:00 +25°C° 0.1 mm 3 mps 738 mmHg 79%
20:00 +24°C° 0.1 mm 3 mps 737 mmHg 84%
21:00 +22°C° 0 mm 3 mps 737 mmHg 85%
22:00 +21°C° 0 mm 3 mps 737 mmHg 87%
23:00 +20°C° 0 mm 3 mps 737 mmHg 88%

Tomorrow, 21 June, Monday

Time Temperature Precipitation Wind Pressure Humidity
00:00 +20°C° 0 mm 3 mps 737 mmHg 90%
01:00 +19°C° 0 mm 3 mps 737 mmHg 92%
02:00 +18°C° 0 mm 3 mps 737 mmHg 94%
03:00 +18°C° 0 mm 3 mps 737 mmHg 94%
04:00 +18°C° 0 mm 3 mps 737 mmHg 94%
05:00 +17°C° 0 mm 3 mps 737 mmHg 95%
06:00 +19°C° 0 mm 3 mps 737 mmHg 89%
07:00 +20°C° 0 mm 4 mps 737 mmHg 84%
08:00 +22°C° 0 mm 4 mps 737 mmHg 78%
09:00 +23°C° 0 mm 5 mps 737 mmHg 72%
10:00 +25°C° 0 mm 5 mps 737 mmHg 66%
11:00 +27°C° 0 mm 5 mps 737 mmHg 60%
12:00 +27°C° 0 mm 5 mps 736 mmHg 60%
13:00 +27°C° 0 mm 5 mps 736 mmHg 60%
14:00 +28°C° 0 mm 5 mps 736 mmHg 59%
15:00 +28°C° 0.3 mm 5 mps 736 mmHg 63%
16:00 +27°C° 0.3 mm 5 mps 736 mmHg 66%
17:00 +27°C° 0.3 mm 5 mps 735 mmHg 70%
18:00 +26°C° 0.3 mm 4 mps 735 mmHg 74%
19:00 +25°C° 0.3 mm 3 mps 735 mmHg 79%
20:00 +23°C° 0.3 mm 2 mps 735 mmHg 84%
21:00 +23°C° 0.1 mm 2 mps 735 mmHg 86%
22:00 +21°C° 0.1 mm 2 mps 735 mmHg 88%
23:00 +20°C° 0.1 mm 2 mps 735 mmHg 91%

Day after tomorrow, 22 June, Tuesday

Time Temperature Precipitation Wind Pressure Humidity
00:00 +20°C° 0 mm 2 mps 735 mmHg 91%
01:00 +19°C° 0 mm 2 mps 735 mmHg 92%
02:00 +19°C° 0 mm 2 mps 735 mmHg 93%
03:00 +19°C° 0 mm 2 mps 735 mmHg 94%
04:00 +19°C° 0 mm 2 mps 735 mmHg 94%
05:00 +19°C° 0 mm 2 mps 735 mmHg 95%
06:00 +20°C° 0 mm 3 mps 735 mmHg 90%
07:00 +22°C° 0 mm 3 mps 735 mmHg 85%
08:00 +23°C° 0 mm 4 mps 736 mmHg 81%
09:00 +26°C° 0 mm 4 mps 736 mmHg 75%
10:00 +27°C° 0 mm 4 mps 736 mmHg 70%
11:00 +28°C° 0 mm 5 mps 736 mmHg 64%
12:00 +29°C° 0.1 mm 5 mps 736 mmHg 61%
13:00 +29°C° 0.1 mm 4 mps 736 mmHg 58%
14:00 +30°C° 0.1 mm 4 mps 736 mmHg 55%
15:00 +30°C° 0.1 mm 4 mps 736 mmHg 57%
16:00 +30°C° 0.1 mm 3 mps 736 mmHg 59%
17:00 +30°C° 0.1 mm 2 mps 736 mmHg 61%
18:00 +28°C° 0.1 mm 2 mps 736 mmHg 66%
19:00 +27°C° 0.1 mm 2 mps 736 mmHg 71%
20:00 +26°C° 0.1 mm 1 mps 736 mmHg 76%
21:00 +25°C° 0.1 mm 1 mps 736 mmHg 78%
22:00 +25°C° 0.1 mm 1 mps 736 mmHg 79%
23:00 +24°C° 0.1 mm 2 mps 736 mmHg 80%

23 June, Wednesday

Time Temperature Precipitation Wind Pressure Humidity
00:00 +24°C° 0.1 mm 1 mps 736 mmHg 82%
01:00 +23°C° 0.1 mm 1 mps 736 mmHg 85%
02:00 +23°C° 0.1 mm 1 mps 736 mmHg 87%
03:00 +22°C° 0.1 mm 1 mps 736 mmHg 88%
04:00 +22°C° 0.1 mm 1 mps 736 mmHg 89%
05:00 +22°C° 0.1 mm 1 mps 736 mmHg 90%
06:00 +23°C° 0 mm 1 mps 737 mmHg 87%
07:00 +24°C° 0 mm 2 mps 737 mmHg 83%
08:00 +26°C° 0 mm 2 mps 737 mmHg 79%
09:00 +27°C° 0.1 mm 2 mps 737 mmHg 75%
10:00 +28°C° 0.1 mm 2 mps 738 mmHg 71%
11:00 +29°C° 0.1 mm 3 mps 738 mmHg 66%
12:00 +29°C° 0 mm 3 mps 738 mmHg 64%
13:00 +30°C° 0 mm 3 mps 738 mmHg 61%
14:00 +30°C° 0 mm 3 mps 738 mmHg 59%
15:00 +30°C° 0.3 mm 3 mps 738 mmHg 61%
16:00 +30°C° 0.3 mm 2 mps 738 mmHg 63%
17:00 +30°C° 0.3 mm 2 mps 738 mmHg 66%
18:00 +29°C° 0 mm 2 mps 738 mmHg 70%
19:00 +27°C° 0 mm 2 mps 738 mmHg 75%
20:00 +26°C° 0 mm 1 mps 738 mmHg 79%
21:00 +25°C° 0 mm 1 mps 738 mmHg 80%
22:00 +24°C° 0 mm 1 mps 738 mmHg 80%
23:00 +23°C° 0 mm 1 mps 738 mmHg 81%

24 June, Thursday

Time Temperature Precipitation Wind Pressure Humidity
00:00 +23°C° 0 mm 2 mps 738 mmHg 83%
01:00 +23°C° 0 mm 2 mps 738 mmHg 84%
02:00 +21°C° 0 mm 2 mps 738 mmHg 86%
03:00 +22°C° 0 mm 1 mps 738 mmHg 86%
04:00 +22°C° 0 mm 1 mps 738 mmHg 87%
05:00 +22°C° 0 mm 1 mps 738 mmHg 87%
06:00 +24°C° 0 mm 1 mps 738 mmHg 83%
07:00 +25°C° 0 mm 1 mps 738 mmHg 78%
08:00 +27°C° 0 mm 2 mps 738 mmHg 74%
09:00 +28°C° 0 mm 2 mps 738 mmHg 70%
10:00 +29°C° 0 mm 2 mps 739 mmHg 66%
11:00 +30°C° 0 mm 2 mps 739 mmHg 63%
12:00 +31°C° 0.2 mm 2 mps 739 mmHg 61%
13:00 +31°C° 0.2 mm 2 mps 739 mmHg 60%
14:00 +31°C° 0.2 mm 2 mps 739 mmHg 58%
15:00 +31°C° 0.3 mm 2 mps 738 mmHg 60%
16:00 +31°C° 0.3 mm 2 mps 738 mmHg 61%
17:00 +31°C° 0.3 mm 1 mps 738 mmHg 63%
18:00 +27°C° 3.1 mm 2 mps 738 mmHg 70%
19:00 +24°C° 3.1 mm 2 mps 738 mmHg 76%
20:00 +20°C° 3.1 mm 3 mps 738 mmHg 83%
21:00 +19°C° 0.3 mm 3 mps 738 mmHg 85%
22:00 +19°C° 0.3 mm 3 mps 738 mmHg 88%
23:00 +19°C° 0.3 mm 2 mps 738 mmHg 90%

25 June, Friday

Time Temperature Precipitation Wind Pressure Humidity
00:00 +19°C° 0 mm 2 mps 737 mmHg 90%
01:00 +19°C° 0 mm 2 mps 737 mmHg 91%
02:00 +20°C° 0 mm 1 mps 737 mmHg 91%
03:00 +20°C° 0.1 mm 1 mps 737 mmHg 92%
04:00 +18°C° 0.1 mm 2 mps 737 mmHg 92%
05:00 +18°C° 0.1 mm 2 mps 737 mmHg 92%
06:00 +20°C° 0.2 mm 2 mps 737 mmHg 88%
07:00 +21°C° 0.2 mm 2 mps 737 mmHg 83%
08:00 +23°C° 0.2 mm 2 mps 737 mmHg 79%
09:00 +25°C° 0 mm 3 mps 737 mmHg 76%
10:00 +26°C° 0 mm 3 mps 737 mmHg 72%
11:00 +27°C° 0 mm 4 mps 737 mmHg 69%
12:00 +28°C° 0.3 mm 4 mps 736 mmHg 68%
13:00 +29°C° 0.3 mm 4 mps 736 mmHg 68%
14:00 +30°C° 0.3 mm 4 mps 736 mmHg 67%
15:00 +29°C° 1.1 mm 4 mps 735 mmHg 70%
16:00 +29°C° 1.1 mm 4 mps 735 mmHg 74%
17:00 +28°C° 1.1 mm 4 mps 734 mmHg 78%
18:00 +26°C° 3.9 mm 4 mps 735 mmHg 82%
19:00 +22°C° 3.9 mm 3 mps 735 mmHg 87%
20:00 +20°C° 3.9 mm 3 mps 735 mmHg 92%
21:00 +19°C° 0.1 mm 3 mps 735 mmHg 93%
22:00 +19°C° 0.1 mm 2 mps 735 mmHg 95%
23:00 +19°C° 0.1 mm 2 mps 735 mmHg 96%
Show more